This is the latest recevied weather packets stored in our database for station/object DG2MCM-11. If no packets are shown the sender has not sent any weather packets the latest 1 day(s).
| Time | Temp. | Humidity | Pressure | Rain* | Wind** | Luminosity | Snow |
|---|---|---|---|---|---|---|---|
| 1778030894 | 8.33° C | 85% | 1010.5 hPa | 0 mm | 0 m/s | - | - |
| 1778029690 | 8.33° C | 84% | 1010.4 hPa | 0 mm | 0 m/s | - | - |
| 1778029088 | 7.78° C | 86% | 1010.7 hPa | 0 mm | 0 m/s | - | - |
| 1778028486 | 7.78° C | 86% | 1010.8 hPa | 0 mm | 0 m/s | - | - |
| 1778027283 | 7.78° C | 86% | 1011 hPa | 0 mm | 0 m/s | - | - |
| 1778026080 | 8.33° C | 86% | 1010.8 hPa | 0 mm | 0 m/s | - | - |
| 1778025478 | 8.33° C | 85% | 1011 hPa | 0 mm | 0 m/s | - | - |
| 1778024876 | 8.33° C | 84% | 1011 hPa | 0 mm | 0 m/s | - | - |
| 1778022471 | 9.44° C | 82% | 1010.8 hPa | 0 mm | 0 m/s | - | - |
| 1778021869 | 9.44° C | 82% | 1010.8 hPa | 0 mm | 0 m/s | - | - |
| 1778020666 | 10.56° C | 78% | 1010.8 hPa | 0 mm | 0 m/s | - | - |
| 1778020129 | 10.56° C | 77% | 1010.6 hPa | 0 mm | 0 m/s | - | - |
| 1778019522 | 11.11° C | 76% | 1010.6 hPa | 0 mm | 0 m/s | - | - |
| 1778018310 | 11.11° C | 74% | 1010.6 hPa | 0 mm | 0 m/s | - | - |
| 1778017708 | 11.11° C | 76% | 1010.7 hPa | 0 mm | 0 m/s | - | - |
| 1778016505 | 11.11° C | 78% | 1010.8 hPa | 0 mm | 0 m/s | - | - |
| 1778015904 | 10.56° C | 78% | 1010.9 hPa | 0 mm | 0 m/s | - | - |
| 1778015302 | 10.56° C | 79% | 1010.9 hPa | 0 mm | 0 m/s | - | - |
| 1778014700 | 10.56° C | 79% | 1010.9 hPa | 0 mm | 0 m/s | - | - |
| 1778012896 | 11.11° C | 78% | 1010.7 hPa | 0 mm | 0 m/s | - | - |
| 1778012294 | 11.11° C | 78% | 1010.7 hPa | 0 mm | 0 m/s | - | - |
| 1778011091 | 11.11° C | 79% | 1010.8 hPa | 0 mm | 0 m/s | - | - |
| 1778009888 | 11.67° C | 78% | 1010.7 hPa | 0 mm | 0 m/s | - | - |
| 1778009286 | 12.22° C | 76% | 1010.3 hPa | 0 mm | 0 m/s | - | - |
| 1778007482 | 14.44° C | 70% | 1009 hPa | 0 mm | 0 m/s | - | - |
* Rain latest hour (hover to see other rain measurements)
** Current wind speed in m/s (hover to see current wind gust speed)